GW0472 Weather Reports


time (UTC)temp
C
wind
direction
speed
KPH
gust
KPH
rain 1hr
cm
rain 24hr
cm
rain mn
cm
humidity
%
barometer
mb
20260507140820 13 312 3.2 4.8 0.00 0.00 0.00 51 1011.9
20260507140316 13 315 0.0 4.8 0.00 0.00 0.00 52 1011.9
20260507135814 13 312 3.2 8.0 0.00 0.00 0.00 52 1011.9
20260507135311 13 307 3.2 9.7 0.00 0.00 0.00 51 1012.1
20260507134808 13 291 3.2 4.8 0.00 0.00 0.00 53 1012.0
20260507134304 13 296 3.2 14.5 0.00 0.00 0.00 54 1012.1
20260507133800 13 343 3.2 8.0 0.00 0.00 0.00 56 1012.1
20260507133256 13 333 8.0 9.7 0.00 0.00 0.00 54 1012.1
20260507132754 12 315 4.8 8.0 0.00 0.00 0.00 56 1012.2
20260507132250 12 306 3.2 11.3 0.00 0.00 0.00 56 1012.3
20260507131748 12 346 1.6 4.8 0.00 0.00 0.00 58 1012.3
20260507131244 12 354 6.4 12.9 0.00 0.00 0.00 54 1012.4
20260507130741 12 324 4.8 11.3 0.00 0.00 0.00 55 1012.6
20260507130239 12 336 4.8 12.9 0.00 0.00 0.00 55 1012.2
20260507125738 12 325 4.8 9.7 0.00 0.00 0.00 57 1012.3
20260507125235 11 300 1.6 9.7 0.00 0.00 0.00 58 1012.5
20260507124731 11 301 1.6 12.9 0.00 0.00 0.00 58 1012.3
20260507124228 11 338 6.4 11.3 0.00 0.00 0.00 59 1012.3
20260507123727 11 319 3.2 9.7 0.00 0.00 0.00 61 1012.1
20260507123224 11 309 4.8 8.0 0.00 0.00 0.00 60 1012.0
20260507122718 11 312 1.6 9.7 0.00 0.00 0.00 62 1012.1
20260507122215 11 319 4.8 9.7 0.00 0.00 0.00 64 1012.1
20260507121711 11 319 6.4 9.7 0.00 0.00 0.00 62 1012.0
20260507121207 11 321 4.8 8.0 0.00 0.00 0.00 63 1011.8
20260507120703 11 322 6.4 8.0 0.00 0.00 0.00 63 1012.1
20260507120200 11 305 6.4 11.3 0.00 0.00 0.00 62 1012.2
20260507115656 11 310 6.4 9.7 0.00 0.00 0.00 62 1012.1
20260507115152 11 326 6.4 8.0 0.00 0.00 0.00 60 1012.0
20260507114648 11 317 6.4 8.0 0.00 0.00 0.00 62 1012.3
20260507114146 11 312 0.0 8.0 0.00 0.00 0.00 61 1012.1
20260507113643 11 301 0.0 1.6 0.00 0.00 0.00 63 1012.1
20260507113139 11 307 1.6 3.2 0.00 0.00 0.00 63 1012.2
20260507112637 11 291 1.6 1.6 0.00 0.00 0.00 63 1012.2
20260507112133 10 283 0.0 0.0 0.00 0.00 0.00 67 1012.4
20260507111631 10 283 0.0 0.0 0.00 0.00 0.00 68 1012.1
20260507111128 10 291 0.0 1.6 0.00 0.00 0.00 65 1012.0
20260507110624 10 302 3.2 3.2 0.00 0.00 0.00 63 1011.8
20260507110121 10 303 3.2 4.8 0.00 0.00 0.00 66 1011.6
20260507105617 10 302 3.2 4.8 0.00 0.00 0.00 63 1011.7
20260507105113 10 304 4.8 8.0 0.00 0.00 0.00 66 1011.6
20260507104611 10 305 3.2 3.2 0.00 0.00 0.00 65 1011.5
20260507104107 10 300 3.2 4.8 0.00 0.00 0.00 66 1011.3
20260507103603 10 305 3.2 3.2 0.00 0.00 0.00 67 1011.3
20260507103100 10 301 3.2 4.8 0.00 0.00 0.00 66 1011.5
20260507102557 10 299 3.2 4.8 0.00 0.00 0.00 66 1011.5
20260507102053 10 312 3.2 4.8 0.00 0.00 0.00 65 1011.2
20260507101548 10 312 3.2 4.8 0.00 0.00 0.00 65 1011.4
20260507101045 10 304 3.2 3.2 0.00 0.00 0.00 66 1011.3
20260507100542 10 311 3.2 4.8 0.00 0.00 0.00 66 1011.0
20260507100041 11 305 3.2 4.8 0.00 0.00 0.00 66 1011.1
20260507095538 11 315 0.0 1.6 0.00 0.00 0.00 64 1011.0
20260507095035 11 291 0.0 0.0 0.00 0.00 0.00 65 1010.9
20260507094531 11 302 0.0 1.6 0.00 0.00 0.00 63 1010.9
20260507094028 11 295 0.0 0.0 0.00 0.00 0.00 63 1010.9
20260507093525 11 299 0.0 1.6 0.00 0.00 0.00 62 1011.1
20260507093024 11 301 3.2 4.8 0.00 0.00 0.00 60 1011.1
20260507092520 11 322 4.8 9.7 0.00 0.00 0.00 60 1010.9
20260507092017 11 334 8.0 9.7 0.00 0.00 0.00 60 1010.9
20260507091514 11 314 8.0 9.7 0.00 0.00 0.00 60 1010.9
20260507091010 11 317 6.4 8.0 0.00 0.00 0.00 63 1010.7
20260507090505 11 313 4.8 8.0 0.00 0.00 0.00 63 1010.7
20260507090003 11 312 4.8 9.7 0.00 0.00 0.00 61 1010.9
20260507085500 11 313 4.8 9.7 0.00 0.00 0.00 60 1010.9
20260507084956 11 343 6.4 11.3 0.00 0.00 0.00 60 1010.9
20260507084453 11 317 6.4 11.3 0.00 0.00 0.00 65 1010.6
20260507083950 11 319 6.4 11.3 0.00 0.00 0.00 65 1010.9
20260507083446 11 317 8.0 12.9 0.00 0.00 0.00 65 1010.9
20260507082943 11 322 8.0 12.9 0.00 0.00 0.00 65 1010.8
20260507082439 11 326 8.0 11.3 0.00 0.00 0.00 68 1010.6
20260507081936 11 329 6.4 12.9 0.00 0.00 0.00 68 1010.6
20260507081432 12 322 8.0 11.3 0.00 0.00 0.00 71 1010.5
20260507080929 12 328 8.0 12.9 0.00 0.00 0.00 72 1010.5
20260507080425 12 312 9.7 11.3 0.00 0.00 0.00 74 1010.3
20260507075920 12 334 8.0 11.3 0.00 0.00 0.00 74 1010.3
20260507075417 12 332 8.0 11.3 0.00 0.00 0.00 75 1010.2
20260507074914 12 324 6.4 11.3 0.00 0.00 0.00 75 1010.1
20260507074410 12 324 4.8 8.0 0.00 0.00 0.00 77 1010.1
20260507073908 12 314 4.8 9.7 0.00 0.00 0.00 77 1010.2
20260507073404 12 329 9.7 11.3 0.00 0.00 0.00 76 1010.0
20260507072901 12 321 8.0 11.3 0.00 0.00 0.00 76 1010.2
20260507072359 12 325 8.0 11.3 0.00 0.00 0.00 77 1010.2
20260507071856 12 315 8.0 12.9 0.00 0.00 0.00 76 1010.1
20260507071353 12 325 9.7 12.9 0.00 0.00 0.00 76 1010.2
20260507070849 12 339 9.7 12.9 0.00 0.00 0.00 75 1010.4
20260507070347 12 351 3.2 8.0 0.00 0.00 0.00 76 1010.5
20260507065843 12 323 6.4 8.0 0.00 0.00 0.00 77 1010.7
20260507065340 12 333 3.2 4.8 0.00 0.00 0.00 79 1010.7
20260507064837 12 297 3.2 3.2 0.00 0.00 0.00 79 1010.7
20260507064336 12 312 1.6 3.2 0.00 0.00 0.00 79 1010.8
20260507063833 12 317 3.2 3.2 0.00 0.00 0.00 79 1010.6
20260507063330 12 313 3.2 3.2 0.00 0.00 0.00 78 1010.5
20260507062826 12 321 4.8 4.8 0.00 0.00 0.00 76 1010.6
20260507062323 12 312 4.8 8.0 0.00 0.00 0.00 75 1010.6
20260507061822 12 338 3.2 9.7 0.00 0.00 0.00 75 1010.6
20260507061319 12 315 8.0 9.7 0.00 0.00 0.00 75 1010.6
20260507060818 12 302 1.6 9.7 0.00 0.00 0.00 76 1010.5
20260507060314 12 311 0.0 3.2 0.00 0.00 0.00 78 1010.6
20260507055811 12 317 3.2 8.0 0.00 0.00 0.00 79 1010.4
20260507055306 12 322 4.8 4.8 0.00 0.00 0.00 80 1010.4
20260507054802 12 300 6.4 8.0 0.00 0.00 0.00 80 1010.4
20260507054259 12 324 4.8 8.0 0.00 0.00 0.00 80 1010.4
20260507053756 13 318 6.4 9.7 0.00 0.00 0.00 79 1010.3
20260507053254 13 314 6.4 9.7 0.00 0.00 0.00 79 1010.5
20260507052753 13 312 4.8 8.0 0.00 0.00 0.00 79 1010.6
20260507052249 13 315 3.2 9.7 0.00 0.00 0.00 79 1010.2
20260507051747 13 323 6.4 8.0 0.00 0.00 0.00 79 1010.3
20260507051244 13 297 1.6 8.0 0.00 0.00 0.00 80 1010.4
20260507050740 13 341 1.6 3.2 0.00 0.00 0.00 82 1010.3
20260507050237 13 297 0.0 1.6 0.00 0.00 0.00 81 1010.1
20260507045734 13 316 4.8 4.8 0.00 0.00 0.00 81 1010.2
20260507045230 13 331 6.4 9.7 0.00 0.00 0.00 79 1010.3
20260507044727 13 334 6.4 9.7 0.00 0.00 0.00 80 1010.1
20260507044224 13 307 4.8 4.8 0.00 0.00 0.00 81 1010.2
20260507043720 13 317 4.8 8.0 0.00 0.00 0.00 83 1010.3
20260507043217 13 353 1.6 8.0 0.00 0.00 0.00 83 1010.2
20260507042714 13 325 4.8 4.8 0.00 0.00 0.00 84 1010.3
20260507042208 13 321 6.4 9.7 0.00 0.00 0.00 83 1010.4
20260507041706 13 320 4.8 9.7 0.00 0.00 0.00 83 1010.3
20260507041202 13 331 8.0 11.3 0.00 0.00 0.00 84 1010.3
20260507040659 13 317 6.4 11.3 0.00 0.00 0.00 83 1010.2
20260507040155 13 312 1.6 4.8 0.00 0.00 0.00 84 1010.1
20260507035651 13 304 1.6 9.7 0.00 0.46 0.46 84 1010.1
20260507035148 13 318 4.8 9.7 0.00 0.46 0.46 83 1010.0
20260507034644 13 324 9.7 14.5 0.00 0.46 0.46 83 1009.9
20260507034142 13 321 4.8 8.0 0.00 0.46 0.46 84 1010.0
20260507033640 13 320 8.0 12.9 0.00 0.46 0.46 83 1009.9
20260507033137 13 336 8.0 20.9 0.00 0.46 0.46 83 1010.0
20260507032635 14 347 8.0 9.7 0.00 0.46 0.46 83 1010.1
20260507032130 13 299 4.8 14.5 0.00 0.46 0.46 83 1010.3
20260507031627 14 323 8.0 12.9 0.00 0.46 0.46 83 1009.9
20260507031124 14 315 8.0 20.9 0.00 0.46 0.46 83 1009.8
20260507030621 14 317 4.8 12.9 0.00 0.46 0.46 83 1010.1
20260507030119 14 307 3.2 9.7 0.00 0.46 0.46 83 1010.0
20260507025616 14 326 4.8 8.0 0.00 0.46 0.46 83 1009.7
20260507025112 14 301 3.2 11.3 0.00 0.46 0.46 82 1009.8
20260507024611 14 327 8.0 20.9 0.00 0.46 0.46 82 1009.6
20260507024108 15 308 4.8 8.0 0.00 0.46 0.46 82 1009.7
20260507023603 15 321 0.0 3.2 0.00 0.46 0.46 82 1009.6
20260507023101 15 47 4.8 11.3 0.00 0.46 0.46 82 1009.6
20260507022557 15 320 8.0 12.9 0.00 0.46 0.46 82 1009.4
20260507022052 15 355 6.4 11.3 0.00 0.46 0.46 83 1009.4
20260507021549 15 315 0.0 3.2 0.00 0.46 0.46 84 1009.5
20260507021045 15 301 0.0 1.6 0.00 0.46 0.46 82 1009.5
20260507020543 15 317 3.2 8.0 0.00 0.46 0.46 82 1009.5
20260507020039 15 305 6.4 14.5 0.00 0.46 0.46 82 1009.3
20260507015538 15 347 8.0 9.7 0.00 0.46 0.46 81 1009.5
20260507015035 15 315 11.3 16.1 0.00 0.46 0.46 81 1009.3
20260507014531 15 340 11.3 16.1 0.00 0.46 0.46 80 1009.1
20260507014027 15 311 9.7 22.5 0.00 0.46 0.46 81 1008.9
20260507013524 15 320 9.7 17.7 0.00 0.46 0.46 80 1009.0
20260507013021 16 319 11.3 16.1 0.00 0.46 0.46 80 1009.1
20260507012518 16 334 11.3 14.5 0.00 0.46 0.46 82 1009.0
20260507012014 16 284 0.0 9.7 0.00 0.46 0.46 80 1009.4
20260507011512 16 292 0.0 3.2 0.00 0.46 0.46 81 1009.3
20260507011008 16 25 4.8 8.0 0.00 0.46 0.46 82 1009.2
20260507010503 16 331 1.6 3.2 0.00 0.46 0.46 82 1009.2
20260507005959 16 308 0.0 1.6 0.00 0.46 0.46 81 1009.5
20260507005457 16 331 0.0 1.6 0.00 0.46 0.46 82 1009.3
20260507004953 16 272 1.6 3.2 0.00 0.46 0.46 81 1009.1
20260507004450 16 312 0.0 1.6 0.00 0.46 0.46 82 1009.2
20260507003948 16 310 1.6 3.2 0.00 0.46 0.46 82 1009.2
20260507003442 16 305 3.2 11.3 0.00 0.46 0.46 81 1008.9
20260507002938 16 246 9.7 11.3 0.00 0.46 0.46 82 1008.8
20260507002435 16 267 3.2 4.8 0.00 0.46 0.46 84 1009.0
20260507001932 16 328 3.2 20.9 0.00 0.46 0.46 84 1008.7
20260507001428 16 254 0.0 4.8 0.00 0.46 0.46 85 1008.9
20260507000926 16 315 6.4 8.0 0.00 0.46 0.46 86 1008.9
20260507000421 17 347 6.4 11.3 0.00 0.46 0.46 87 1008.5
20260506235917 17 10 1.6 3.2 0.00 0.46 0.46 87 1008.5
20260506235415 17 25 1.6 4.8 0.00 0.46 0.46 87 1008.2
20260506234910 17 311 4.8 8.0 0.00 0.46 0.46 87 1008.5
20260506234408 17 319 6.4 9.7 0.00 0.46 0.46 86 1007.9
20260506233905 17 326 14.5 16.1 0.00 0.46 0.46 88 1007.6
20260506233401 18 303 6.4 9.7 0.00 0.46 0.46 90 1007.7
20260506232858 18 325 4.8 4.8 0.00 0.46 0.46 89 1007.7
20260506232354 18 267 1.6 1.6 0.00 0.46 0.46 89 1007.5
20260506231850 18 270 1.6 1.6 0.00 0.46 0.46 90 1007.5
20260506231348 18 269 0.0 0.0 0.00 0.46 0.46 89 1007.4
20260506230845 18 243 0.0 1.6 0.00 0.46 0.46 89 1007.4
20260506230342 18 215 3.2 4.8 0.00 0.46 0.46 90 1007.4
20260506225838 18 225 0.0 1.6 0.00 0.46 0.46 91 1007.5
20260506225336 18 227 0.0 0.0 0.00 0.46 0.46 92 1007.6
20260506224833 18 251 0.0 0.0 0.00 0.46 0.46 92 1007.6
20260506224330 18 243 0.0 0.0 0.00 0.46 0.46 92 1007.2
20260506223826 18 242 0.0 1.6 0.00 0.46 0.46 93 1007.3
20260506223321 18 256 0.0 0.0 0.00 0.46 0.46 93 1007.3
20260506222819 18 253 0.0 0.0 0.00 0.46 0.46 93 1007.4
20260506222313 18 265 0.0 0.0 0.00 0.46 0.46 93 1007.3
20260506221807 18 264 0.0 0.0 0.00 0.46 0.46 93 1007.5
20260506221304 18 253 0.0 0.0 0.00 0.46 0.46 93 1007.3
20260506220801 18 252 0.0 0.0 0.00 0.46 0.46 92 1007.4
20260506220256 18 252 0.0 0.0 0.00 0.46 0.46 92 1007.4
20260506215753 18 260 0.0 0.0 0.00 0.46 0.46 92 1007.5
20260506215249 18 263 0.0 0.0 0.00 0.46 0.46 92 1007.4
20260506214745 18 257 0.0 0.0 0.00 0.46 0.46 92 1007.1
20260506214242 18 257 0.0 0.0 0.00 0.46 0.46 92 1007.1
20260506213741 18 257 0.0 0.0 0.00 0.46 0.46 92 1007.2
20260506213237 18 262 0.0 1.6 0.00 0.46 0.46 92 1007.3
20260506212735 18 262 0.0 1.6 0.00 0.46 0.46 92 1007.2
20260506212230 18 273 1.6 3.2 0.00 0.46 0.46 91 1007.3
20260506211725 18 251 0.0 0.0 0.00 0.46 0.46 91 1006.9
20260506211222 18 235 0.0 0.0 0.00 0.46 0.46 91 1006.7
20260506210719 18 242 0.0 1.6 0.00 0.46 0.46 91 1006.6
20260506210216 18 251 0.0 1.6 0.00 0.46 0.46 91 1006.9
20260506205713 18 247 0.0 0.0 0.00 0.46 0.46 91 1006.6
20260506205208 18 212 3.2 3.2 0.00 0.46 0.46 91 1006.6
20260506204706 18 228 0.0 3.2 0.00 0.46 0.46 91 1006.5
20260506204203 18 224 3.2 8.0 0.00 0.46 0.46 91 1006.2
20260506203701 18 206 4.8 4.8 0.00 0.46 0.46 91 1006.3
20260506203157 18 207 1.6 3.2 0.00 0.46 0.46 91 1006.4
20260506202656 18 209 3.2 3.2 0.00 0.46 0.46 91 1006.4
20260506202151 18 224 1.6 3.2 0.00 0.46 0.46 91 1006.9
20260506201648 18 236 1.6 4.8 0.00 0.46 0.46 91 1006.6
20260506201145 18 232 1.6 4.8 0.00 0.46 0.46 91 1006.5
20260506200642 18 221 1.6 3.2 0.00 0.46 0.46 91 1006.5
20260506200138 18 244 3.2 3.2 0.00 0.46 0.46 91 1006.5
20260506195635 18 237 1.6 4.8 0.00 0.46 0.46 92 1006.6
20260506195131 18 206 4.8 4.8 0.00 0.46 0.46 92 1006.7
20260506194629 18 202 3.2 4.8 0.00 0.46 0.46 93 1006.7
20260506194125 18 232 1.6 3.2 0.00 0.46 0.46 93 1006.9
20260506193623 18 240 1.6 1.6 0.00 0.46 0.46 93 1006.9
20260506193120 18 240 1.6 3.2 0.00 0.46 0.46 93 1006.9
20260506192617 18 237 1.6 4.8 0.00 0.46 0.46 92 1006.6
20260506192112 18 176 4.8 8.0 0.00 0.46 0.46 92 1006.7
20260506191609 18 243 1.6 1.6 0.00 0.46 0.46 93 1006.5
20260506191105 17 231 1.6 3.2 0.00 0.46 0.46 93 1006.7
20260506190603 17 218 1.6 8.0 0.00 0.46 0.46 92 1006.7
20260506190100 17 231 4.8 9.7 0.00 0.46 0.46 92 1006.9
20260506185557 17 193 4.8 12.9 0.00 0.46 0.46 92 1007.2
20260506185053 17 191 4.8 8.0 0.00 0.46 0.46 92 1007.0
20260506184551 17 214 8.0 12.9 0.00 0.46 0.46 91 1007.1
20260506184048 18 194 4.8 9.7 0.00 0.46 0.46 90 1007.0
20260506183543 18 208 6.4 12.9 0.00 0.46 0.46 90 1007.2
20260506183040 18 211 8.0 14.5 0.00 0.46 0.46 90 1007.1
20260506182538 18 193 12.9 16.1 0.00 0.46 0.46 90 1007.1
20260506182035 18 169 4.8 9.7 0.00 0.46 0.46 90 1006.9
20260506181533 17 168 8.0 14.5 0.00 0.46 0.46 91 1007.1
20260506181029 17 196 4.8 12.9 0.00 0.46 0.46 92 1007.0
20260506180526 17 178 11.3 12.9 0.00 0.46 0.46 92 1007.0
20260506180022 17 190 6.4 12.9 0.00 0.46 0.46 92 1007.0
20260506175519 17 208 4.8 9.7 0.00 0.46 0.46 92 1006.9
20260506175016 17 212 1.6 4.8 0.00 0.46 0.46 92 1007.3
20260506174514 17 196 6.4 12.9 0.00 0.46 0.46 92 1007.1
20260506174010 17 198 1.6 11.3 0.00 0.46 0.46 92 1007.2
20260506173508 17 198 1.6 9.7 0.00 0.46 0.46 92 1006.9
20260506173005 17 189 8.0 16.1 0.00 0.46 0.46 92 1007.1
20260506172502 17 206 6.4 16.1 0.00 0.46 0.46 92 1007.3
20260506171958 17 192 8.0 17.7 0.00 0.46 0.46 92 1007.1
20260506171455 17 224 4.8 14.5 0.00 0.46 0.46 92 1007.2
20260506170953 17 196 12.9 16.1 0.00 0.46 0.46 92 1007.1
20260506170449 17 195 9.7 14.5 0.00 0.46 0.46 92 1007.0
20260506165948 17 199 11.3 17.7 0.00 0.46 0.46 93 1007.2
20260506165446 17 185 14.5 20.9 0.00 0.46 0.46 93 1007.4
20260506164942 16 181 8.0 16.1 0.00 0.46 0.46 93 1007.4
20260506164439 16 196 8.0 17.7 0.00 0.46 0.46 94 1007.1
20260506163937 16 236 9.7 17.7 0.00 0.46 0.46 94 1007.0
20260506163431 16 200 8.0 17.7 0.00 0.46 0.46 94 1007.1
20260506162926 16 195 14.5 22.5 0.00 0.46 0.46 94 1007.1
20260506162424 16 217 11.3 17.7 0.00 0.46 0.46 94 1007.2
20260506161921 16 221 9.7 14.5 0.00 0.46 0.46 95 1007.4
20260506161420 16 194 6.4 17.7 0.00 0.46 0.46 95 1007.3
20260506160911 16 206 4.8 11.3 0.00 0.46 0.46 96 1007.1
20260506160408 16 204 6.4 11.3 0.00 0.46 0.46 96 1007.3
20260506155906 15 188 9.7 17.7 0.00 0.46 0.46 96 1007.3
20260506155403 15 212 11.3 20.9 0.00 0.46 0.46 97 1007.4
20260506153525 15 195 11.3 16.1 0.00 0.46 0.46 98 1007.4
20260506153022 15 209 8.0 20.9 0.00 0.46 0.46 98 1007.3
20260506152519 15 201 12.9 27.4 0.00 0.46 0.46 98 1007.3
20260506152018 15 189 17.7 24.1 0.00 0.46 0.46 98 1007.3
20260506151515 15 211 6.4 27.4 0.00 0.46 0.46 99 1007.3
20260506151012 15 225 16.1 27.4 0.00 0.46 0.46 99 1007.4
20260506150508 15 208 9.7 16.1 0.00 0.46 0.46 99 1007.3
20260506150005 15 198 16.1 20.9 0.18 0.46 0.46 99 1007.2
20260506145502 15 192 6.4 12.9 0.18 0.46 0.46 99 1007.1
20260506144959 15 202 6.4 20.9 0.00 0.43 0.43 99 1007.4
20260506144456 15 181 14.5 16.1 0.13 0.43 0.43 99 1007.6
20260506143954 15 252 11.3 22.5 0.13 0.43 0.43 99 1008.0
20260506143451 15 173 6.4 16.1 0.00 0.41 0.41 99 1008.0
20260506142949 15 192 12.9 16.1 0.00 0.41 0.41 99 1008.2
20260506142446 15 178 9.7 22.5 0.18 0.41 0.41 99 1008.0
20260506141944 15 171 9.7 12.9 0.00 0.38 0.38 99 1008.1
20260506141442 15 198 8.0 17.7 0.00 0.38 0.38 99 1008.2
20260506140940 15 192 6.4 16.1 0.18 0.38 0.38 99 1007.9